Vertical_Velocity
3 -11 -24 -5 12 7 -15 -2 2 -1 -10 4 -1 -5 9 -7 1 -1 -4 1 -0 -1 -6 2 -2 0 0 1 -0 -2 -1 -0 -3 2 -2 -1 1 -1 -1 2 1 0 -1
-1 -6 30 -16 -7 2 11 1 1 -2 -2 4 -5 -3 7 -5 -0 -1 -2 2 -1 -5 -1 2 -4 4 0 -2 1 -1 -1 0 0 -2 -0 -1 -0 -1 -1 4 -1 1 1
19 33 -31 -55 -5 -15 -2 -4 -2 2 3 6 -3 -8 1 -2 -11 -0 2 4 -2 -3 2 3 -3 -1 -1 0 -1 1 0 -1 -1 -1 -1 -0 4 -3 0 -1 1 -0 0
1 28 -20 21 10 12 -16 -2 1 4 0 3 -8 0 13 4 3 1 1 -5 1 -5 -4 -0 -2 0 -0 1 0 -0 2 2 -0 -3 -1 -3 0 3 -1 -0 2 -1 -0
7 9 19 53 -13 9 -10 8 0 -1 -1 -6 5 3 -2 -5 1 -5 -2 -3 2 -2 1 -1 3 -0 1 -0 2 -1 2 1 -2 -1 -0 -2 -1 1 2 -1 1 1 1
25 9 10 22 27 3 3 1 -5 0 -5 0 -2 -0 -1 1 -4 -1 -3 0 -1 -3 -0 -0 -0 -2 -1 1 1 -3 1 1 0 -2 1 -1 -1 1 -2 1 -1 3 -4
7 7 10 40 -5 -2 -4 -2 -0 0 -2 1 -3 -0 -1 -0 -2 -2 -1 -2 0 1 1 -0 -2 1 -2 1 2 -2 2 0 2 0 1 -0 -2 -0 -2 1 -3 1 2
1 28 -2 -11 -4 2 -3 2 -1 -1 4 1 4 3 -0 -2 -1 -2 -1 9 1 2 -1 1 0 2 1 -2 3 -1 1 3 2 0 1 -1 -2 -0 1 -2 1 -0 4
-14 18 12 92 17 -3 -3 3 3 1 0 4 0 -2 -2 -2 6 -0 -4 1 2 -1 1 4 0 1 1 0 0 -0 3 1 1 1 -0 0 -2 0 1 -2 -3 0 3
-12 -27 38 83 5 6 3 1 -6 2 11 4 0 2 2 0 1 -4 0 3 -1 1 1 -1 -0 0 0 0 0 0 -2 1 -1 -2 -0 -0 0 -4 -2 1 -2 2 1
2 -2 12 39 6 9 1 -1 -4 -3 6 -3 4 2 1 -1 -2 -1 -1 2 0 2 -3 0 -1 -0 1 3 6 1 -0 4 -3 -1 1 0 -2 -1 4 1 -1 3 -5
14 6 6 13 4 4 -1 -1 -2 3 5 1 4 2 -2 -3 1 5 2 -1 0 -2 -3 0 -2 -4 1 2 -1 8 10 -1 2 -0 0 1 0 -0 2 -0 -0 3 -4
2 -15 -12 -3 -6 3 1 7 6 6 1 0 0 -1 0 -2 7 1 -0 1 -3 1 -1 1 1 -2 -2 1 1 -3 -6 -10 -3 -4 1 -2 -1 2 -1 0 5 0 -2
19 19 11 11 9 13 8 5 -1 -1 -1 -1 -0 -1 1 3 6 2 4 -1 0 1 1 -1 -0 1 1 0 2 -0 -1 -1 1 1 4 -3 0 -1 -2 1 4 0 2
-2 7 4 8 12 15 23 -7 -4 -10 2 0 1 4 8 5 0 2 4 6 2 4 0 -2 2 -1 -1 -1 0 -1 -1 -1 -2 1 -1 -0 -3 2 1 -2 -1 -2 -2
1 -8 3 -3 3 -3 -1 6 5 24 12 2 1 -1 -4 -1 2 -2 -0 -0 0 2 -2 1 1 -2 2 -1 -3 -2 0 -1 4 0 1 -2 -2 -3 -3 -0 -2 -3 0
1 6 7 4 6 1 -4 -4 -4 2 9 8 5 -5 4 -1 2 -1 2 0 3 -5 2 0 -0 -1 4 -3 -1 1 1 1 3 -2 -1 -2 -2 -2 -0 -1 -2 -3 -3
4 5 -0 -2 -1 -11 4 -1 -12 -16 9 2 10 -3 -3 5 1 -1 -3 1 -2 1 -2 2 -1 1 3 -3 -1 1 -1 0 -3 -4 -3 -1 -1 1 -1 1 1 2 -0
10 5 4 4 8 13 4 5 0 12 22 17 11 9 -3 -7 -2 -4 -4 -2 -2 -3 -1 3 1 1 1 0 1 2 1 -1 -1 4 1 0 2 3 -1 -3 -2 -4 -1
-2 1 -4 2 7 5 9 3 16 9 28 24 12 5 1 -1 0 -3 -2 -0 3 4 1 -1 -0 -0 -3 -1 1 -1 -1 3 2 4 3 -2 -1 -1 2 -1 5 11 11
-2 -1 1 -1 -1 -0 5 8 3 5 -0 -6 -3 9 7 6 2 4 -1 1 -1 -4 -3 -3 -1 1 -2 -1 3 3 2 4 5 -2 -5 -0 3 8 -6 22 37 20 2
0 -1 -0 0 0 -2 -8 -5 4 1 3 -2 -3 -0 -3 -2 -2 -4 -0 -2 -2 -1 0 3 -2 -0 -1 1 -0 2 3 19 48 -10 11 -2 -1 26 9 -0 -0 -0 2
2 2 0 0 0 0 3 3 3 1 1 -0 3 -1 0 2 -2 -2 -4 -2 -1 -1 -7 3 -4 2 -12 37 -8 21 -5 15 14 82 14 5 35 8 1 1 1 -1 0
-5 -7 -10 -12 -5 -1 -0 -3 0 -5 -3 1 2 1 1 5 2 -1 -1 -2 -1 -1 2 -2 -4 12 -11 -17 -7 15 -6 -6 46 -1 9 12 -5 -3 3 -1 5 2 -3
-5 0 2 0 5 5 1 -1 -1 -0 1 -1 -0 -2 -1 -4 -5 -4 -4 -2 0 -1 -1 -4 -1 -9 64 -2 -1 -1 -1 2 -3 -1 0 -1 0 0 -0 4 -1 -1 1
-2 -1 -3 -1 -2 -1 1 -0 2 3 1 -1 -2 -2 3 1 5 2 -2 3 0 -3 0 -3 4 2 3 33 15 4 0 1 0 2 -0 1 5 -1 -1 -2 0 -0 -0
Height
5605 5625 5633 5648 5666 5681 5694 5709 5721 5731 5741 5749 5754 5761 5767 5773 5778 5783 5787 5791 5793 5798 5801 5806 5809 5812 5814 5817 5820 5822 5824 5825 5826 5826 5827 5828 5829 5830 5831 5831 5832 5832 5832
5591 5610 5622 5638 5656 5673 5686 5699 5711 5724 5734 5741 5747 5753 5760 5766 5771 5776 5780 5784 5788 5792 5797 5799 5802 5805 5809 5812 5814 5817 5817 5819 5820 5821 5822 5823 5824 5825 5825 5826 5827 5826 5827
5582 5605 5619 5642 5649 5662 5676 5689 5704 5716 5726 5733 5739 5746 5752 5757 5763 5768 5774 5778 5783 5786 5788 5792 5796 5799 5802 5805 5807 5809 5810 5813 5814 5815 5816 5816 5818 5819 5820 5820 5821 5821 5821
5584 5595 5618 5623 5630 5650 5669 5682 5695 5706 5717 5726 5733 5740 5747 5753 5759 5764 5768 5771 5775 5779 5782 5785 5789 5792 5795 5798 5799 5802 5804 5806 5807 5809 5809 5810 5812 5813 5813 5814 5815 5815 5815
5582 5590 5607 5607 5623 5646 5662 5675 5687 5698 5710 5719 5726 5734 5741 5745 5751 5756 5761 5764 5769 5772 5776 5779 5782 5785 5787 5790 5792 5795 5797 5799 5800 5802 5803 5804 5805 5805 5807 5807 5807 5808 5807
5579 5585 5603 5600 5622 5641 5655 5669 5681 5691 5703 5712 5721 5727 5734 5740 5744 5749 5754 5758 5763 5766 5770 5773 5776 5778 5780 5783 5784 5786 5789 5791 5794 5795 5796 5797 5799 5799 5800 5800 5800 5801 5800
5578 5588 5602 5604 5623 5640 5652 5664 5675 5686 5697 5706 5713 5719 5726 5732 5737 5742 5747 5751 5755 5760 5763 5766 5768 5770 5773 5775 5778 5780 5782 5784 5786 5788 5788 5789 5790 5791 5791 5792 5792 5793 5793
5575 5580 5596 5609 5622 5637 5649 5660 5671 5681 5690 5698 5705 5711 5718 5724 5730 5735 5741 5747 5749 5753 5755 5758 5760 5763 5765 5768 5771 5773 5774 5776 5777 5779 5780 5781 5782 5782 5784 5784 5785 5784 5784
5581 5586 5599 5598 5617 5631 5644 5656 5666 5675 5684 5692 5698 5704 5711 5717 5724 5728 5734 5737 5741 5745 5748 5750 5754 5756 5758 5761 5763 5765 5767 5768 5769 5770 5771 5773 5773 5774 5775 5776 5776 5776 5776
5581 5590 5595 5594 5614 5626 5638 5649 5659 5668 5677 5685 5691 5697 5704 5709 5715 5719 5725 5729 5733 5737 5740 5743 5746 5748 5751 5753 5755 5756 5757 5759 5760 5762 5764 5764 5765 5766 5766 5766 5767 5766 5766
5577 5585 5594 5597 5610 5623 5632 5642 5652 5659 5667 5675 5682 5688 5695 5701 5706 5711 5716 5720 5725 5729 5732 5735 5738 5741 5743 5745 5746 5747 5746 5749 5752 5754 5754 5755 5757 5757 5758 5757 5757 5757 5756
5574 5583 5594 5600 5610 5620 5628 5637 5645 5652 5661 5667 5674 5681 5686 5692 5698 5703 5708 5712 5716 5721 5723 5727 5731 5733 5735 5736 5736 5736 5738 5741 5742 5743 5744 5745 5747 5748 5748 5748 5747 5747 5746
5572 5581 5590 5599 5606 5618 5625 5630 5637 5645 5652 5659 5665 5670 5677 5684 5691 5695 5700 5704 5708 5712 5715 5718 5721 5723 5726 5727 5726 5729 5731 5732 5734 5734 5734 5735 5737 5739 5737 5737 5738 5738 5737
5570 5577 5586 5595 5601 5609 5618 5624 5633 5640 5646 5651 5656 5663 5670 5676 5682 5686 5691 5695 5698 5702 5706 5710 5712 5715 5717 5718 5720 5721 5722 5723 5724 5725 5726 5727 5728 5728 5727 5728 5729 5727 5726
5564 5571 5579 5586 5592 5599 5607 5617 5624 5627 5633 5640 5647 5655 5662 5668 5672 5677 5682 5685 5689 5694 5698 5701 5704 5706 5708 5710 5711 5713 5714 5714 5716 5718 5717 5719 5720 5719 5719 5718 5718 5717 5716
5558 5565 5570 5577 5583 5590 5598 5606 5615 5607 5618 5627 5637 5645 5652 5658 5664 5668 5672 5677 5680 5685 5689 5693 5696 5697 5699 5702 5702 5704 5704 5705 5707 5708 5709 5710 5710 5711 5710 5709 5708 5707 5705
5554 5558 5563 5569 5575 5583 5590 5595 5605 5609 5612 5620 5626 5633 5642 5649 5655 5659 5663 5668 5672 5675 5679 5682 5685 5688 5690 5691 5693 5695 5696 5697 5698 5698 5700 5700 5700 5699 5698 5698 5696 5694 5692
5547 5552 5557 5562 5568 5575 5579 5587 5596 5601 5606 5610 5617 5621 5630 5637 5643 5647 5651 5657 5662 5666 5669 5672 5675 5677 5680 5682 5684 5684 5686 5687 5687 5688 5688 5687 5687 5688 5686 5684 5683 5681 5679
5541 5545 5551 5557 5561 5567 5574 5580 5587 5590 5595 5599 5606 5611 5617 5625 5631 5636 5641 5647 5651 5654 5658 5662 5665 5667 5670 5671 5673 5674 5675 5675 5676 5676 5676 5676 5676 5675 5673 5672 5669 5666 5664
5536 5540 5544 5548 5553 5559 5566 5570 5576 5581 5586 5591 5597 5604 5610 5616 5620 5625 5631 5637 5640 5643 5647 5650 5653 5655 5658 5660 5661 5661 5661 5661 5662 5663 5663 5663 5662 5661 5658 5655 5651 5648 5645
5530 5533 5538 5542 5546 5550 5558 5564 5569 5573 5580 5585 5591 5596 5603 5607 5613 5617 5622 5626 5629 5632 5636 5639 5642 5644 5645 5646 5647 5647 5648 5648 5648 5649 5649 5649 5649 5644 5643 5638 5636 5633 5632
5520 5524 5529 5534 5540 5545 5550 5555 5560 5566 5571 5577 5583 5588 5594 5598 5603 5607 5611 5615 5618 5621 5624 5626 5628 5631 5632 5634 5634 5635 5635 5633 5636 5635 5634 5634 5633 5632 5627 5627 5622 5619 5617
5512 5516 5520 5525 5531 5535 5539 5544 5549 5554 5560 5565 5571 5576 5581 5586 5591 5595 5599 5602 5605 5608 5611 5612 5614 5617 5620 5609 5622 5621 5623 5621 5621 5613 5614 5616 5613 5615 5612 5611 5607 5604 5600
5499 5506 5512 5518 5521 5525 5529 5533 5538 5543 5549 5554 5558 5564 5569 5573 5577 5582 5585 5588 5591 5593 5596 5598 5601 5604 5607 5608 5603 5605 5608 5609 5606 5604 5603 5600 5600 5599 5595 5592 5590 5587 5583
5486 5493 5498 5503 5509 5513 5518 5523 5528 5532 5537 5541 5546 5551 5556 5561 5564 5568 5572 5574 5577 5579 5581 5583 5585 5590 5585 5589 5590 5589 5589 5590 5589 5587 5586 5584 5583 5580 5577 5574 5572 5569 5564
5468 5476 5483 5489 5495 5500 5505 5509 5514 5519 5523 5527 5532 5537 5541 5545 5549 5553 5556 5559 5561 5563 5566 5567 5570 5572 5574 5572 5569 5573 5572 5572 5572 5570 5569 5567 5564 5562 5559 5556 5553 5549 5545